Time,TemperatureF,DewpointF,PressureIn,WindDirection,WindDirectionDegrees,WindSpeedMPH,WindSpeedGustMPH,Humidity,HourlyPrecipIn,Conditions,Clouds,dailyrainin,SoftwareType,DateUTC
2013-04-27 00:03:00,78.0,-99.9,30.25,North,-999,-999.0,-999.0,-999,-99.99,,,-99.99,,2013-04-27 04:03:00,
2013-04-27 00:13:00,-999.0,-99.9,30.25,ESE,116,11.0,14.0,-999,-99.99,,,-99.99,,2013-04-27 04:13:00,
2013-04-27 00:23:00,77.0,-99.9,30.25,North,-999,-999.0,-999.0,-999,-99.99,,,-99.99,,2013-04-27 04:23:00,
2013-04-27 00:33:00,-999.0,-99.9,30.25,ESE,112,7.0,12.0,-999,-99.99,,,-99.99,,2013-04-27 04:33:00,
2013-04-27 00:43:00,-999.0,-99.9,30.25,East,94,7.0,13.0,-999,-99.99,,,-99.99,,2013-04-27 04:43:00,
2013-04-27 00:53:00,-999.0,-99.9,30.25,East,94,7.0,12.0,-999,-99.99,,,-99.99,,2013-04-27 04:53:00,
2013-04-27 01:02:00,-999.0,-99.9,30.25,ESE,103,6.0,11.0,-999,-99.99,,,-99.99,,2013-04-27 05:02:00,
2013-04-27 01:22:00,76.0,-99.9,30.25,North,-999,-999.0,-999.0,-999,-99.99,,,-99.99,,2013-04-27 05:22:00,
2013-04-27 01:32:00,-999.0,-99.9,30.25,ESE,104,6.0,11.0,-999,-99.99,,,-99.99,,2013-04-27 05:32:00,
2013-04-27 01:42:00,75.0,-99.9,30.25,North,-999,-999.0,-999.0,-999,-99.99,,,-99.99,,2013-04-27 05:42:00,
2013-04-27 01:52:00,75.0,-99.9,30.24,North,-999,-999.0,-999.0,-999,-99.99,,,-99.99,,2013-04-27 05:52:00,
2013-04-27 02:02:00,-999.0,-99.9,30.24,ESE,104,6.0,10.0,-999,-99.99,,,-99.99,,2013-04-27 06:02:00,
2013-04-27 02:22:00,-999.0,-99.9,30.23,ESE,106,6.0,11.0,-999,-99.99,,,-99.99,,2013-04-27 06:22:00,
2013-04-27 02:32:00,-999.0,-99.9,30.22,East,95,7.0,12.0,-999,-99.99,,,-99.99,,2013-04-27 06:32:00,
2013-04-27 02:42:00,74.0,-99.9,30.22,North,-999,-999.0,-999.0,-999,-99.99,,,-99.99,,2013-04-27 06:42:00,
2013-04-27 02:52:00,-999.0,-99.9,30.22,East,88,9.0,14.0,-999,-99.99,,,-99.99,,2013-04-27 06:52:00,
2013-04-27 03:02:00,-999.0,-99.9,30.21,East,91,8.0,11.0,-999,-99.99,,,-99.99,,2013-04-27 07:02:00,
2013-04-27 03:11:00,-999.0,-99.9,30.21,East,92,7.0,10.0,-999,-99.99,,,-99.99,,2013-04-27 07:11:00,
2013-04-27 03:22:00,74.0,-99.9,30.20,North,-999,-999.0,-999.0,-999,-99.99,,,-99.99,,2013-04-27 07:22:00,
2013-04-27 03:32:00,-999.0,-99.9,30.20,ESE,107,6.0,9.0,-999,-99.99,,,-99.99,,2013-04-27 07:32:00,
2013-04-27 03:42:00,-999.0,-99.9,30.20,East,101,5.0,10.0,-999,-99.99,,,-99.99,,2013-04-27 07:42:00,
2013-04-27 03:52:00,73.0,-99.9,30.21,North,-999,-999.0,-999.0,-999,-99.99,,,-99.99,,2013-04-27 07:52:00,
2013-04-27 04:12:00,-999.0,-99.9,30.20,ESE,103,5.0,9.0,-999,-99.99,,,-99.99,,2013-04-27 08:12:00,
2013-04-27 04:22:00,-999.0,-99.9,30.20,ESE,114,6.0,10.0,-999,-99.99,,,-99.99,,2013-04-27 08:22:00,
2013-04-27 04:33:00,-999.0,-99.9,30.20,ESE,104,5.0,9.0,-999,-99.99,,,-99.99,,2013-04-27 08:33:00,
2013-04-27 04:42:00,-999.0,-99.9,30.20,ESE,103,4.0,9.0,-999,-99.99,,,-99.99,,2013-04-27 08:42:00,
2013-04-27 04:52:00,72.0,-99.9,30.20,North,-999,-999.0,-999.0,-999,-99.99,,,-99.99,,2013-04-27 08:52:00,
2013-04-27 05:01:00,-999.0,-99.9,30.20,ESE,106,5.0,9.0,-999,-99.99,,,-99.99,,2013-04-27 09:01:00,
2013-04-27 05:22:00,-999.0,-99.9,30.20,ESE,108,4.0,8.0,-999,-99.99,,,-99.99,,2013-04-27 09:22:00,
2013-04-27 05:33:00,-999.0,-99.9,30.19,ESE,109,5.0,8.0,-999,-99.99,,,-99.99,,2013-04-27 09:33:00,
2013-04-27 05:43:00,72.0,-99.9,30.19,North,-999,-999.0,-999.0,-999,-99.99,,,-99.99,,2013-04-27 09:43:00,
2013-04-27 05:53:00,72.0,-99.9,30.19,North,-999,-999.0,-999.0,-999,-99.99,,,-99.99,,2013-04-27 09:53:00,
2013-04-27 06:03:00,-999.0,-99.9,30.19,ESE,112,5.0,8.0,-999,-99.99,,,-99.99,,2013-04-27 10:03:00,
2013-04-27 06:23:00,72.0,-99.9,30.18,North,-999,-999.0,-999.0,-999,-99.99,,,-99.99,,2013-04-27 10:23:00,
2013-04-27 06:42:00,-999.0,-99.9,30.19,East,98,5.0,8.0,-999,-99.99,,,-99.99,,2013-04-27 10:42:00,
2013-04-27 06:53:00,-999.0,-99.9,30.19,East,98,5.0,9.0,-999,-99.99,,,-99.99,,2013-04-27 10:53:00,
2013-04-27 07:03:00,72.0,-99.9,30.19,North,-999,-999.0,-999.0,-999,-99.99,,,-99.99,,2013-04-27 11:03:00,
2013-04-27 07:12:00,-999.0,-99.9,30.19,East,95,5.0,10.0,-999,-99.99,,,-99.99,,2013-04-27 11:12:00,
2013-04-27 07:22:00,72.0,-99.9,30.20,North,-999,-999.0,-999.0,-999,-99.99,,,-99.99,,2013-04-27 11:22:00,
2013-04-27 07:32:00,-999.0,-99.9,30.20,East,100,5.0,8.0,-999,-99.99,,,-99.99,,2013-04-27 11:32:00,
2013-04-27 07:42:00,72.0,-99.9,30.20,North,-999,-999.0,-999.0,-999,-99.99,,,-99.99,,2013-04-27 11:42:00,
2013-04-27 07:52:00,-999.0,-99.9,30.20,East,82,7.0,10.0,-999,-99.99,,,-99.99,,2013-04-27 11:52:00,
2013-04-27 08:02:00,-999.0,-99.9,30.21,East,88,6.0,10.0,-999,-99.99,,,-99.99,,2013-04-27 12:02:00,
2013-04-27 08:22:00,-999.0,-99.9,30.21,East,81,7.0,9.0,-999,-99.99,,,-99.99,,2013-04-27 12:22:00,
2013-04-27 08:32:00,-999.0,-99.9,30.21,ENE,75,6.0,9.0,-999,-99.99,,,-99.99,,2013-04-27 12:32:00,
2013-04-27 08:42:00,73.0,-99.9,30.22,North,-999,-999.0,-999.0,-999,-99.99,,,-99.99,,2013-04-27 12:42:00,
2013-04-27 08:52:00,-999.0,-99.9,30.22,East,92,6.0,10.0,-999,-99.99,,,-99.99,,2013-04-27 12:52:00,
2013-04-27 09:02:00,74.0,-99.9,30.22,North,-999,-999.0,-999.0,-999,-99.99,,,-99.99,,2013-04-27 13:02:00,
2013-04-27 09:22:00,-999.0,-99.9,30.23,East,83,6.0,9.0,-999,-99.99,,,-99.99,,2013-04-27 13:22:00,
2013-04-27 09:32:00,-999.0,-99.9,30.23,East,88,6.0,8.0,-999,-99.99,,,-99.99,,2013-04-27 13:32:00,
2013-04-27 09:42:00,74.0,-99.9,30.23,North,-999,-999.0,-999.0,-999,-99.99,,,-99.99,,2013-04-27 13:42:00,
2013-04-27 09:52:00,74.0,-99.9,30.22,North,-999,-999.0,-999.0,-999,-99.99,,,-99.99,,2013-04-27 13:52:00,
2013-04-27 10:11:00,-999.0,-99.9,30.23,East,84,5.0,9.0,-999,-99.99,,,-99.99,,2013-04-27 14:11:00,
2013-04-27 10:22:00,-999.0,-99.9,30.23,East,93,5.0,7.0,-999,-99.99,,,-99.99,,2013-04-27 14:22:00,
2013-04-27 10:32:00,-999.0,-99.9,30.23,East,86,5.0,9.0,-999,-99.99,,,-99.99,,2013-04-27 14:32:00,
2013-04-27 10:42:00,-999.0,-99.9,30.23,East,88,4.0,8.0,-999,-99.99,,,-99.99,,2013-04-27 14:42:00,
2013-04-27 10:52:00,75.0,-99.9,30.23,North,-999,-999.0,-999.0,-999,-99.99,,,-99.99,,2013-04-27 14:52:00,
2013-04-27 11:02:00,-999.0,-99.9,30.23,ENE,76,5.0,8.0,-999,-99.99,,,-99.99,,2013-04-27 15:02:00,
2013-04-27 11:22:00,76.0,-99.9,30.24,North,-999,-999.0,-999.0,-999,-99.99,,,-99.99,,2013-04-27 15:22:00,
2013-04-27 11:33:00,-999.0,-99.9,30.24,NE,54,6.0,9.0,-999,-99.99,,,-99.99,,2013-04-27 15:33:00,
2013-04-27 11:43:00,77.0,-99.9,30.24,North,-999,-999.0,-999.0,-999,-99.99,,,-99.99,,2013-04-27 15:43:00,
2013-04-27 11:53:00,-999.0,-99.9,30.24,East,86,6.0,8.0,-999,-99.99,,,-99.99,,2013-04-27 15:53:00,
2013-04-27 12:03:00,-999.0,-99.9,30.24,NE,55,5.0,8.0,-999,-99.99,,,-99.99,,2013-04-27 16:03:00,
2013-04-27 12:23:00,-999.0,-99.9,30.24,East,79,5.0,7.0,-999,-99.99,,,-99.99,,2013-04-27 16:23:00,
2013-04-27 12:42:00,79.0,-99.9,30.23,North,-999,-999.0,-999.0,-999,-99.99,,,-99.99,,2013-04-27 16:42:00,
2013-04-27 12:53:00,-999.0,-99.9,30.23,East,83,4.0,7.0,-999,-99.99,,,-99.99,,2013-04-27 16:53:00,
2013-04-27 13:02:00,79.0,-99.9,30.22,North,-999,-999.0,-999.0,-999,-99.99,,,-99.99,,2013-04-27 17:02:00,
2013-04-27 13:22:00,80.0,-99.9,30.21,North,-999,-999.0,-999.0,-999,-99.99,,,-99.99,,2013-04-27 17:22:00,
2013-04-27 13:32:00,-999.0,-99.9,30.21,ENE,70,4.0,6.0,-999,-99.99,,,-99.99,,2013-04-27 17:32:00,
2013-04-27 13:42:00,80.0,-99.9,30.21,North,-999,-999.0,-999.0,-999,-99.99,,,-99.99,,2013-04-27 17:42:00,
2013-04-27 13:53:00,-999.0,-99.9,30.20,NE,51,3.0,5.0,-999,-99.99,,,-99.99,,2013-04-27 17:53:00,
2013-04-27 14:02:00,-999.0,-99.9,30.20,ENE,69,3.0,6.0,-999,-99.99,,,-99.99,,2013-04-27 18:02:00,
2013-04-27 14:32:00,81.0,-99.9,30.19,North,-999,-999.0,-999.0,-999,-99.99,,,-99.99,,2013-04-27 18:32:00,
2013-04-27 14:42:00,81.0,-99.9,30.19,North,-999,-999.0,-999.0,-999,-99.99,,,-99.99,,2013-04-27 18:42:00,
2013-04-27 15:11:00,-999.0,-99.9,30.17,NE,39,5.0,7.0,-999,-99.99,,,-99.99,,2013-04-27 19:11:00,
2013-04-27 15:22:00,-999.0,-99.9,30.17,NE,44,3.0,7.0,-999,-99.99,,,-99.99,,2013-04-27 19:22:00,
2013-04-27 15:32:00,83.0,-99.9,30.16,North,-999,-999.0,-999.0,-999,-99.99,,,-99.99,,2013-04-27 19:32:00,
2013-04-27 15:42:00,-999.0,-99.9,30.16,NNE,18,4.0,6.0,-999,-99.99,,,-99.99,,2013-04-27 19:42:00,
2013-04-27 15:53:00,-999.0,-99.9,30.15,NNE,24,3.0,5.0,-999,-99.99,,,-99.99,,2013-04-27 19:53:00,
2013-04-27 16:11:00,-999.0,-99.9,30.15,NE,55,3.0,6.0,-999,-99.99,,,-99.99,,2013-04-27 20:11:00,
2013-04-27 16:22:00,-999.0,-99.9,30.14,ENE,58,4.0,7.0,-999,-99.99,,,-99.99,,2013-04-27 20:22:00,
2013-04-27 16:32:00,83.0,-99.9,30.14,North,-999,-999.0,-999.0,-999,-99.99,,,-99.99,,2013-04-27 20:32:00,
2013-04-27 16:42:00,-999.0,-99.9,30.13,ESE,103,4.0,7.0,-999,-99.99,,,-99.99,,2013-04-27 20:42:00,
2013-04-27 16:52:00,82.0,-99.9,30.13,North,-999,-999.0,-999.0,-999,-99.99,,,-99.99,,2013-04-27 20:52:00,
2013-04-27 17:02:00,84.0,-99.9,30.13,North,-999,-999.0,-999.0,-999,-99.99,,,-99.99,,2013-04-27 21:02:00,
2013-04-27 17:22:00,-999.0,-99.9,30.12,East,88,4.0,7.0,-999,-99.99,,,-99.99,,2013-04-27 21:22:00,
2013-04-27 17:43:00,-999.0,-99.9,30.12,East,82,4.0,6.0,-999,-99.99,,,-99.99,,2013-04-27 21:43:00,
2013-04-27 17:53:00,84.0,-99.9,30.11,North,-999,-999.0,-999.0,-999,-99.99,,,-99.99,,2013-04-27 21:53:00,
2013-04-27 18:03:00,-999.0,-99.9,30.11,ENE,65,4.0,6.0,-999,-99.99,,,-99.99,,2013-04-27 22:03:00,
2013-04-27 18:23:00,82.0,-99.9,30.11,North,-999,-999.0,-999.0,-999,-99.99,,,-99.99,,2013-04-27 22:23:00,
2013-04-27 18:32:00,-999.0,-99.9,30.11,North,7,9.0,12.0,-999,-99.99,,,-99.99,,2013-04-27 22:32:00,
2013-04-27 18:42:00,-999.0,-99.9,30.11,NNE,21,8.0,12.0,-999,-99.99,,,-99.99,,2013-04-27 22:42:00,
2013-04-27 18:53:00,82.0,-99.9,30.11,North,-999,-999.0,-999.0,-999,-99.99,,,-99.99,,2013-04-27 22:53:00,
2013-04-27 19:03:00,81.0,-99.9,30.11,North,-999,-999.0,-999.0,-999,-99.99,,,-99.99,,2013-04-27 23:03:00,
2013-04-27 19:22:00,-999.0,-99.9,30.11,North,8,11.0,13.0,-999,-99.99,,,-99.99,,2013-04-27 23:22:00,
2013-04-27 19:32:00,-999.0,-99.9,30.11,North,7,9.0,12.0,-999,-99.99,,,-99.99,,2013-04-27 23:32:00,
2013-04-27 19:43:00,-999.0,-99.9,30.11,North,5,8.0,12.0,-999,-99.99,,,-99.99,,2013-04-27 23:43:00,
2013-04-27 19:53:00,81.0,-99.9,30.11,North,-999,-999.0,-999.0,-999,-99.99,,,-99.99,,2013-04-27 23:53:00,
2013-04-27 20:02:00,-999.0,-99.9,30.11,North,8,9.0,12.0,-999,-99.99,,,-99.99,,2013-04-28 00:02:00,
2013-04-27 20:12:00,-999.0,-99.9,30.12,NNE,14,7.0,10.0,-999,-99.99,,,-99.99,,2013-04-28 00:12:00,
2013-04-27 20:22:00,80.0,-99.9,30.12,North,-999,-999.0,-999.0,-999,-99.99,,,-99.99,,2013-04-28 00:22:00,
2013-04-27 20:32:00,80.0,-99.9,30.12,North,-999,-999.0,-999.0,-999,-99.99,,,-99.99,,2013-04-28 00:32:00,
2013-04-27 20:43:00,80.0,-99.9,30.12,North,-999,-999.0,-999.0,-999,-99.99,,,-99.99,,2013-04-28 00:43:00,
2013-04-27 20:52:00,80.0,-99.9,30.12,North,-999,-999.0,-999.0,-999,-99.99,,,-99.99,,2013-04-28 00:52:00,
2013-04-27 21:02:00,-999.0,-99.9,30.12,East,83,9.0,12.0,-999,-99.99,,,-99.99,,2013-04-28 01:02:00,
2013-04-27 21:12:00,-999.0,-99.9,30.12,East,89,9.0,14.0,-999,-99.99,,,-99.99,,2013-04-28 01:12:00,
2013-04-27 21:22:00,-999.0,-99.9,30.13,East,95,8.0,14.0,-999,-99.99,,,-99.99,,2013-04-28 01:22:00,
2013-04-27 21:32:00,79.0,-99.9,30.13,North,-999,-999.0,-999.0,-999,-99.99,,,-99.99,,2013-04-28 01:32:00,
2013-04-27 21:42:00,79.0,-99.9,30.13,North,-999,-999.0,-999.0,-999,-99.99,,,-99.99,,2013-04-28 01:42:00,
2013-04-27 21:52:00,-999.0,-99.9,30.13,East,80,11.0,16.0,-999,-99.99,,,-99.99,,2013-04-28 01:52:00,
2013-04-27 22:02:00,-999.0,-99.9,30.14,East,90,12.0,16.0,-999,-99.99,,,-99.99,,2013-04-28 02:02:00,
2013-04-27 22:22:00,77.0,-99.9,30.14,North,-999,-999.0,-999.0,-999,-99.99,,,-99.99,,2013-04-28 02:22:00,
2013-04-27 22:32:00,-999.0,-99.9,30.14,East,96,9.0,14.0,-999,-99.99,,,-99.99,,2013-04-28 02:32:00,
2013-04-27 22:42:00,-999.0,-99.9,30.15,ESE,102,7.0,13.0,-999,-99.99,,,-99.99,,2013-04-28 02:42:00,
2013-04-27 22:52:00,-999.0,-99.9,30.15,East,101,8.0,15.0,-999,-99.99,,,-99.99,,2013-04-28 02:52:00,
2013-04-27 23:02:00,76.0,-99.9,30.15,North,-999,-999.0,-999.0,-999,-99.99,,,-99.99,,2013-04-28 03:02:00,
2013-04-27 23:12:00,-999.0,-99.9,30.16,ESE,105,7.0,14.0,-999,-99.99,,,-99.99,,2013-04-28 03:12:00,
2013-04-27 23:22:00,76.0,-99.9,30.15,North,-999,-999.0,-999.0,-999,-99.99,,,-99.99,,2013-04-28 03:22:00,
2013-04-27 23:33:00,-999.0,-99.9,30.16,ESE,109,8.0,15.0,-999,-99.99,,,-99.99,,2013-04-28 03:33:00,
2013-04-27 23:43:00,-999.0,-99.9,30.16,ESE,104,7.0,14.0,-999,-99.99,,,-99.99,,2013-04-28 03:43:00,
2013-04-27 23:53:00,-999.0,-99.9,30.16,ESE,103,8.0,15.0,-999,-99.99,,,-99.99,,2013-04-28 03:53:00,